Location: Houston
(29.7630°N, 95.3630°W)
Time: 12:05:15
(UTC-06:00)

Saudisat 1A - Visible Passes

Search period start: 01 March 2017 00:00
Search period end: 11 March 2017 00:00
Orbit: 570 x 623 km, 64.6° (Epoch: 28 February)

Date Brightness Start Highest point End Pass type
(mag) Time Alt. Az. Time Alt. Az. Time Alt. Az.
02 Mar 10.4 20:27:19 10° N 20:28:01 14° N 20:28:01 14° N visible
03 Mar 10.2 20:37:06 10° NNW 20:38:28 20° NNW 20:38:28 20° NNW visible
04 Mar 9.9 19:09:44 10° NNE 19:11:46 13° NE 19:12:21 13° ENE visible
04 Mar 10.1 20:47:12 10° NW 20:49:04 24° NW 20:49:04 24° NW visible
05 Mar 9.2 19:18:29 10° N 19:22:01 23° NE 19:23:07 21° ENE visible
05 Mar 10.4 20:57:46 10° NW 20:59:50 20° W 20:59:50 20° W visible
06 Mar 8.3 19:27:56 10° NNW 19:32:10 44° ENE 19:34:05 27° ESE visible
06 Mar 11.0 21:09:24 10° W 21:10:49 12° WSW 21:10:49 12° WSW visible
07 Mar 7.9 19:37:47 10° NNW 19:42:12 89° SW 19:45:18 18° SSE visible
08 Mar 9.1 19:47:58 10° NW 19:52:07 42° WSW 19:56:11 10° S visible
09 Mar 10.5 19:58:40 10° WNW 20:01:58 21° WSW 20:05:13 10° SSW visible
10 Mar 11.3 20:11:19 10° W 20:11:44 10° WSW 20:12:08 10° WSW visible
